TimeCDT,TemperatureF,Dew PointF,Humidity,Sea Level PressureIn,VisibilityMPH,Wind Direction,Wind SpeedMPH,Gust SpeedMPH,PrecipitationIn,Events,Conditions,WindDirDegrees,DateUTC
12:53 AM,51.1,37.0,59,30.26,10.0,NE,5.8,-,N/A,,Scattered Clouds,40,2013-04-22 05:53:00
1:53 AM,50.0,37.0,61,30.25,10.0,Calm,Calm,-,N/A,,Scattered Clouds,0,2013-04-22 06:53:00
2:53 AM,48.9,37.0,64,30.25,10.0,Calm,Calm,-,N/A,,Partly Cloudy,0,2013-04-22 07:53:00
3:53 AM,44.1,39.0,82,30.25,8.0,Calm,Calm,-,N/A,,Clear,0,2013-04-22 08:53:00
4:53 AM,43.0,39.9,89,30.25,9.0,South,3.5,-,N/A,,Clear,180,2013-04-22 09:53:00
5:53 AM,43.0,39.0,86,30.27,10.0,Calm,Calm,-,N/A,,Partly Cloudy,0,2013-04-22 10:53:00
6:53 AM,44.1,41.0,89,30.28,10.0,Calm,Calm,-,N/A,,Partly Cloudy,0,2013-04-22 11:53:00
7:53 AM,54.0,43.0,66,30.28,10.0,Calm,Calm,-,N/A,,Partly Cloudy,0,2013-04-22 12:53:00
8:53 AM,59.0,42.1,53,30.27,10.0,South,3.5,-,N/A,,Clear,180,2013-04-22 13:53:00
9:53 AM,64.0,43.0,46,30.28,10.0,SE,8.1,-,N/A,,Partly Cloudy,140,2013-04-22 14:53:00
10:53 AM,66.9,42.1,40,30.28,10.0,SW,5.8,-,N/A,,Partly Cloudy,220,2013-04-22 15:53:00
11:53 AM,70.0,42.1,36,30.25,10.0,SSW,9.2,-,N/A,,Scattered Clouds,200,2013-04-22 16:53:00
12:53 PM,71.1,41.0,34,30.22,10.0,SSE,12.7,18.4,N/A,,Scattered Clouds,160,2013-04-22 17:53:00
1:53 PM,71.1,39.9,32,30.18,10.0,East,4.6,-,N/A,,Scattered Clouds,100,2013-04-22 18:53:00
2:53 PM,73.0,39.0,29,30.16,10.0,ESE,11.5,18.4,N/A,,Mostly Cloudy,110,2013-04-22 19:53:00
3:53 PM,73.0,39.0,29,30.13,10.0,ESE,11.5,17.3,N/A,,Scattered Clouds,110,2013-04-22 20:53:00
4:53 PM,72.0,37.9,29,30.12,10.0,SSE,10.4,-,N/A,,Scattered Clouds,150,2013-04-22 21:53:00
5:53 PM,72.0,39.0,30,30.11,10.0,South,9.2,-,N/A,,Scattered Clouds,170,2013-04-22 22:53:00
6:53 PM,68.0,39.9,36,30.10,10.0,SSW,4.6,-,N/A,,Mostly Cloudy,210,2013-04-22 23:53:00
7:53 PM,66.0,39.0,37,30.10,10.0,Calm,Calm,-,N/A,,Scattered Clouds,0,2013-04-23 00:53:00
8:53 PM,61.0,42.1,50,30.12,10.0,Calm,Calm,-,N/A,,Partly Cloudy,0,2013-04-23 01:53:00
9:53 PM,57.9,44.1,60,30.12,10.0,South,3.5,-,N/A,,Clear,170,2013-04-23 02:53:00
10:53 PM,55.9,44.1,64,30.12,10.0,SSE,3.5,-,N/A,,Partly Cloudy,160,2013-04-23 03:53:00
11:53 PM,55.9,44.1,64,30.12,10.0,Calm,Calm,-,N/A,,Clear,0,2013-04-23 04:53:00